Powrót do katalogu

NOAA 16 DEB

AktywnySSO
NORAD 41410·DEBRIS·🇺🇸 United States

Wystrzelony Sep 21, 2000 z Vandenberg Space Force Base

Loading…

Następne Przeloty (najbliższe 24 godziny)

TLE

ŚwieżeSource: Space-Track

Epoka: Sep 12, 2026, 08:08 UTC

1 41410U 00055KP  26255.33942393  .00001638  00000-0  77490-3 0  9994
2 41410  98.6957 295.4174 0019575 314.3325  45.6247 14.20957849544231

Śledź NOAA 16 DEB w czasie rzeczywistym z AllMySat

Download on the App Store